User: anonymous   Login
Location: Sungai Kamana Besar
(2.6333°N, 113.4333°E)
Time: 04:04:39
(UTC+00:00)
Language:

Cosmos 2082 Rocket - Orbit

View from above orbital plane
View from above orbital plane
View from above satellite
View from above satellite

Ground track
Ground track

The orbit data is extracted from the following two-line orbital elements,

1 20625U 90046B   22228.25220100  .00000324  00000-0  19260-3 0  9992
2 20625  70.9996 150.4026 0012646 127.2961 232.9316 14.14698571664314
Epoch (UTC): 16 August 2022 06:03:10
Eccentricity: 0.0012646
inclination: 70.9996°
perigee height: 834 km
apogee height: 852 km
right ascension of ascending node: 150.4026°
argument of perigee: 127.2961°
revolutions per day: 14.14698571
mean anomaly at epoch: 232.9316°
orbit number at epoch: 66431

The dashed part of the orbit path shows where the satellite is in the earth's shadow,  

DLR